Temperature
19 18 18 18 18 18 18 18 18 18 18 18 18 18 18 18 18 18 18 18 18 18 18 18 18 17 18 18 17 17 17 17 17 17 17 17 17 17 17 17 17 17 17
19 18 18 18 18 18 18 18 18 18 18 18 18 18 18 18 18 18 18 18 18 18 18 17 18 17 17 17 17 17 17 17 17 17 17 17 17 17 17 17 17 17 17
18 18 18 18 18 18 18 18 18 18 18 18 18 18 18 18 18 18 18 18 18 18 18 18 18 17 17 17 17 17 17 17 17 17 17 17 17 17 17 17 17 17 17
18 18 17 18 18 18 18 18 18 18 18 18 18 18 18 18 18 18 18 18 18 18 17 17 17 17 17 17 17 17 17 17 17 17 17 17 16 17 17 17 17 17 17
18 18 17 18 18 18 18 18 18 18 18 18 18 18 18 18 18 18 18 18 18 17 17 17 17 17 17 17 17 17 17 17 17 17 16 16 16 17 17 17 17 17 17
18 18 17 18 18 18 18 18 18 18 18 18 18 18 18 18 18 18 17 17 17 17 17 17 17 17 17 17 17 17 17 17 17 17 16 16 16 17 17 17 17 17 17
19 18 17 18 18 18 18 18 18 18 18 18 18 18 18 18 18 17 17 17 17 17 17 17 17 17 17 17 17 17 17 17 17 17 16 16 16 17 17 17 17 17 16
19 18 17 18 18 18 18 18 18 18 18 18 18 18 17 17 17 17 18 18 18 17 17 17 17 17 17 17 17 17 17 17 17 17 16 16 17 17 17 17 17 16 16
19 18 18 18 18 18 18 18 18 18 18 18 18 18 18 18 17 17 17 17 17 17 17 17 17 17 17 17 17 17 17 17 17 17 17 16 17 17 17 17 17 16 16
19 18 18 18 18 17 17 18 18 18 18 18 18 18 18 18 18 17 17 17 17 17 17 17 17 17 17 17 17 17 17 17 17 17 17 17 17 17 17 17 17 16 16
18 18 18 18 18 18 18 17 17 18 18 18 17 18 17 17 17 17 17 17 17 17 17 17 17 17 17 17 17 17 17 17 17 17 17 17 17 17 17 17 17 16 16
19 18 18 18 18 18 18 17 17 17 17 17 17 17 17 17 17 17 17 17 17 17 17 17 17 17 17 17 17 17 17 17 17 17 17 17 17 17 17 17 17 16 16
19 18 18 18 17 18 18 18 17 17 17 17 17 17 17 17 17 17 17 17 17 17 17 17 17 17 17 17 17 17 17 17 17 17 17 17 17 17 17 17 17 17 16
19 18 18 18 18 18 18 18 17 17 17 17 17 17 17 17 17 17 17 17 17 17 17 17 17 17 17 17 17 17 17 17 17 17 17 17 17 17 17 17 17 17 17
19 18 18 18 18 18 18 18 17 17 17 17 17 17 17 17 17 17 17 17 17 17 17 17 17 17 17 17 17 17 17 17 17 17 17 17 17 17 17 17 17 17 17
19 18 18 18 18 18 18 18 17 17 17 17 17 17 17 17 17 17 17 17 17 17 17 17 17 17 17 17 17 17 17 17 17 16 17 17 17 17 17 17 17 16 16
19 18 18 18 18 18 18 17 17 17 17 17 17 17 17 17 17 17 17 17 17 17 17 17 17 17 17 17 17 17 17 17 17 16 16 17 17 17 17 17 17 16 16
19 18 18 18 18 18 18 18 17 17 17 17 17 17 17 17 17 17 17 17 17 17 17 17 17 17 17 17 17 17 17 17 17 17 17 16 16 16 17 17 17 16 16
19 19 18 18 18 18 18 18 17 17 17 17 17 17 17 17 17 17 17 17 17 17 17 17 17 17 17 17 17 17 17 17 17 17 17 17 17 16 16 17 17 17 16
19 19 19 19 18 18 18 18 17 17 17 17 17 17 17 17 17 17 17 17 17 17 17 17 17 17 17 17 17 17 17 17 17 17 17 17 17 17 17 16 16 16 17
19 19 19 19 19 18 18 18 18 17 17 17 17 17 17 17 17 17 17 17 17 17 17 17 17 17 17 17 17 17 17 17 17 17 17 17 17 17 17 16 16 16 16
20 19 19 19 19 18 18 18 18 18 17 17 17 17 17 17 17 17 17 17 17 17 17 17 17 17 17 17 17 17 18 18 17 17 17 17 17 16 16 16 16 16 16
20 20 19 19 19 19 18 18 18 18 18 17 17 17 17 17 17 17 17 17 17 17 17 17 17 17 17 17 17 17 18 18 17 17 17 17 16 16 16 16 16 16 16
20 20 20 20 20 19 19 18 18 18 18 18 17 17 17 17 17 17 17 17 17 17 17 17 17 17 17 17 17 17 17 17 17 17 17 16 16 16 16 16 16 15 15
21 20 20 20 20 20 19 19 18 18 18 18 18 18 17 17 17 17 17 17 17 17 17 17 17 17 17 17 17 17 17 17 17 17 17 16 16 16 16 15 15 15 15
21 20 20 20 20 20 20 19 19 18 18 18 18 18 18 17 17 17 17 17 17 17 17 17 17 17 17 17 17 17 17 17 17 17 16 16 16 16 15 15 15 15 15
Wind_Speed
6 9 11 9 10 11 11 12 12 12 12 13 13 13 14 14 15 15 16 16 16 16 17 17 17 17 17 17 17 17 17 17 17 17 17 17 17 16 16 15 14 16 17
7 10 11 9 10 10 11 11 12 12 12 12 13 14 14 14 15 15 15 16 16 17 16 16 16 16 17 16 16 16 16 16 16 16 16 16 15 15 14 12 11 15 16
8 10 10 9 9 10 10 10 11 11 12 12 13 13 14 14 14 15 15 16 16 16 16 15 16 16 16 16 15 15 15 15 15 14 13 13 14 13 13 13 14 15 15
8 9 10 9 9 9 9 10 11 11 12 12 13 13 14 14 14 15 15 15 16 16 15 15 15 15 15 15 14 14 14 14 13 11 10 11 12 13 12 13 14 14 14
8 8 10 8 8 8 9 10 10 11 11 12 12 13 13 14 14 14 14 15 15 15 15 14 14 14 14 14 13 13 13 12 10 8 10 10 11 13 12 12 12 13 13
8 8 11 7 8 8 9 9 10 10 11 11 11 12 12 13 13 13 14 14 14 14 14 13 13 13 13 12 12 12 12 11 9 9 9 10 11 12 11 11 11 11 11
8 8 11 8 8 8 9 9 9 10 10 10 11 12 12 12 12 13 13 13 13 13 13 12 12 12 11 11 11 11 10 7 7 8 8 9 11 12 11 10 10 10 11
7 8 10 8 7 8 8 9 9 9 10 11 11 11 11 11 11 11 12 12 12 12 12 11 11 11 10 10 10 10 8 6 7 8 8 9 11 11 10 10 10 10 10
7 7 7 9 9 8 8 8 9 9 10 10 10 10 10 10 11 10 10 10 11 11 10 10 10 10 9 9 9 8 6 3 5 7 8 9 12 10 10 10 10 10 10
5 5 5 6 7 7 9 9 8 9 9 9 9 9 9 10 10 9 10 10 9 9 9 9 9 9 8 8 8 7 7 6 6 7 7 10 11 10 10 10 10 9 9
5 4 4 6 6 5 7 9 8 8 7 7 8 7 5 6 8 8 10 9 8 8 7 7 7 8 8 9 8 7 6 4 5 6 7 11 10 9 9 10 9 9 9
5 5 4 3 4 4 5 5 5 5 6 5 6 5 5 5 5 7 9 7 7 7 7 6 6 8 7 7 9 8 4 4 4 5 8 10 8 8 8 9 9 8 8
5 4 4 4 3 3 3 3 3 4 4 5 5 4 4 3 4 4 5 7 6 6 6 7 6 3 4 4 4 4 3 3 4 5 9 10 8 8 8 8 9 9 8
4 4 3 3 3 2 2 2 3 3 3 3 4 2 3 2 2 3 2 3 3 3 3 3 3 3 4 4 3 3 3 2 3 4 8 9 7 8 8 8 8 9 8
4 3 3 2 2 3 2 1 2 2 2 3 2 2 1 2 2 2 2 1 2 3 4 3 2 3 3 3 3 3 2 2 3 3 7 9 8 7 7 7 8 8 8
3 3 3 3 3 3 3 2 1 2 2 2 1 1 1 1 1 1 2 2 2 2 2 2 2 2 2 2 2 2 2 2 3 2 4 8 9 8 7 7 8 8 8
3 3 3 3 3 3 4 4 3 2 3 2 2 1 1 1 1 1 1 2 1 2 2 2 2 2 2 2 2 2 2 1 2 2 2 3 6 9 9 7 7 8 9
4 3 3 3 3 3 3 3 2 2 1 1 1 2 1 1 1 2 1 1 2 2 2 2 2 1 1 1 1 1 1 2 2 3 3 3 3 4 8 9 9 9 9
4 4 4 3 3 3 3 3 2 2 1 1 1 1 2 2 2 2 1 1 2 2 2 3 2 2 2 1 1 2 2 2 2 2 2 3 3 3 4 9 10 9 8
5 5 4 4 3 3 2 2 2 2 2 1 1 1 2 2 2 3 2 2 3 2 2 2 1 2 1 2 2 1 2 1 2 2 2 2 2 3 3 3 7 9 10
6 5 5 4 3 3 2 2 2 3 2 2 2 1 2 2 2 3 2 2 3 2 2 3 2 3 3 2 2 2 2 2 1 1 1 1 1 1 1 2 4 4 7
7 6 6 5 4 4 3 2 1 1 1 1 1 1 2 2 2 3 2 3 2 3 3 3 3 3 3 3 2 2 2 2 2 2 2 1 1 1 1 1 1 2 3
7 7 5 5 5 4 4 3 2 2 2 2 2 1 1 2 2 2 2 3 2 3 3 3 4 5 4 3 4 3 2 1 1 2 2 1 1 1 0 1 1 0 1
8 7 7 6 6 5 5 4 3 2 2 1 1 0 1 1 1 2 2 2 3 3 3 4 4 4 4 4 3 4 4 2 2 2 2 2 2 1 1 1 1 1 1
9 8 7 7 6 6 5 4 4 3 2 1 1 1 1 1 1 1 2 2 2 3 3 4 3 4 4 4 4 3 3 3 5 4 2 2 1 1 1 1 1 2 2
9 8 8 7 7 6 6 5 4 3 2 1 1 1 1 1 1 1 2 2 2 2 2 3 3 4 4 4 5 4 4 3 4 3 3 3 2 0 1 1 1 2 3
Wind_Direction
84 84 84 76 76 75 75 77 80 80 80 79 81 84 87 90 95 98 101 102 103 103 103 104 108 110 112 111 112 113 115 116 118 118 115 114 115 115 116 120 125 116 116
93 90 89 77 75 75 74 76 80 81 81 81 83 86 87 90 94 99 100 102 103 104 104 106 108 109 111 114 115 116 118 117 119 120 120 118 115 116 118 117 110 116 121
100 99 101 83 79 79 77 76 79 81 81 82 84 89 89 91 93 95 97 100 102 103 104 106 109 109 112 115 116 118 119 119 122 127 135 125 118 117 116 114 113 120 121
101 99 91 90 83 82 81 79 78 80 83 84 86 89 90 92 95 96 97 100 103 105 107 107 108 110 111 114 118 121 123 124 129 145 136 123 124 120 121 121 122 124 124
97 98 98 97 91 87 83 82 81 82 85 87 88 90 91 93 95 95 96 98 101 103 105 108 109 111 112 114 119 122 124 127 142 146 118 120 119 121 124 124 125 127 128
112 104 98 96 95 91 87 85 85 86 87 89 89 90 91 91 92 94 95 97 99 100 103 106 110 111 113 115 119 122 126 138 156 125 124 125 121 126 129 129 129 130 130
106 100 103 94 92 90 88 87 86 87 89 91 91 91 92 94 94 95 96 97 99 101 102 104 107 111 113 117 122 126 133 153 136 122 125 123 120 130 136 135 134 132 133
110 107 108 109 95 93 92 91 88 88 90 92 92 92 93 94 94 94 95 98 100 102 102 103 104 106 110 115 121 131 143 172 135 127 124 122 123 135 139 137 138 137 137
108 110 115 123 121 115 99 93 92 91 93 94 95 96 97 96 96 96 96 99 101 103 105 104 104 105 107 112 119 128 141 190 135 125 123 120 130 141 143 143 143 142 142
113 111 112 107 113 124 118 105 97 94 95 98 98 100 109 115 112 116 114 103 103 104 106 107 109 112 113 117 123 132 157 199 132 126 121 121 134 145 149 150 150 149 149
118 112 112 114 116 115 111 118 123 118 113 127 117 118 143 121 118 125 98 103 107 107 108 110 116 125 132 132 135 154 183 153 119 112 112 118 139 147 153 156 157 158 157
136 136 124 114 114 115 110 117 123 121 115 108 100 107 104 95 97 105 114 114 115 123 127 125 142 164 179 141 151 181 150 130 124 123 116 129 145 150 155 162 165 164 165
143 142 135 134 137 129 117 120 115 111 115 116 108 116 108 123 128 128 135 142 144 159 148 146 173 153 129 119 135 135 123 132 125 124 127 141 155 162 165 169 172 172 174
147 149 142 140 144 135 121 126 141 130 124 112 113 119 121 122 127 113 133 129 150 138 126 135 126 113 110 119 132 135 145 150 130 118 128 145 161 169 174 178 179 180 181
152 159 158 166 168 170 168 204 131 127 121 117 122 114 116 145 142 133 132 140 154 137 145 141 131 121 123 134 142 139 136 123 131 135 138 152 169 180 186 188 189 189 191
165 171 172 183 180 184 185 195 175 171 162 148 154 133 164 137 122 160 166 174 173 166 138 144 130 134 131 116 128 123 139 140 133 160 155 157 172 185 195 202 203 201 201
176 186 192 190 185 194 198 205 197 195 182 176 165 177 201 179 161 212 177 189 176 174 164 175 152 157 164 154 136 124 148 155 144 165 182 179 176 183 191 201 205 208 208
186 189 202 205 177 195 203 218 213 205 183 183 185 180 190 188 204 230 230 198 185 199 190 191 211 196 186 180 159 192 172 158 174 189 192 194 203 188 186 194 204 211 215
192 193 195 208 207 207 201 207 209 199 213 221 201 183 166 180 194 221 244 240 215 209 214 231 184 208 192 207 208 201 219 209 200 202 199 208 200 214 198 177 193 207 215
189 188 192 191 201 211 198 188 203 200 198 198 188 161 187 194 205 232 216 225 238 224 221 220 217 219 225 217 246 216 232 218 218 215 222 205 201 214 219 201 196 198 202
182 184 189 193 184 202 203 209 200 191 192 179 186 175 202 226 222 234 259 223 245 240 237 230 225 211 214 197 229 231 208 191 194 204 224 210 176 193 221 226 229 223 192
183 186 187 189 189 198 188 207 217 220 206 198 217 178 228 239 249 230 241 252 232 232 232 232 227 245 234 214 239 256 235 185 171 178 172 178 196 146 143 168 213 243 254
186 188 187 186 187 192 194 198 194 191 204 197 196 199 225 242 258 281 266 268 260 243 230 241 235 233 241 235 234 253 262 248 180 157 142 132 110 85 100 86 87 78 259
186 183 185 184 184 184 193 205 209 210 213 214 235 171 184 209 269 271 269 261 260 259 246 250 241 247 244 247 237 245 264 280 241 206 174 148 134 96 39 48 77 112 114
184 179 179 180 180 181 187 192 208 218 225 214 191 151 233 194 254 279 276 267 266 268 266 271 272 264 254 255 255 251 243 231 237 238 226 193 175 119 101 84 62 56 65
181 180 176 174 179 180 185 192 201 207 222 244 249 255 242 228 226 271 278 274 271 285 286 276 272 265 269 268 267 261 254 248 238 239 230 216 211 172 86 48 61 65 58
Height
1539 1537 1535 1535 1535 1534 1534 1533 1533 1532 1532 1531 1530 1530 1530 1529 1530 1531 1531 1532 1533 1534 1535 1536 1537 1539 1541 1542 1544 1546 1547 1549 1550 1552 1553 1554 1556 1557 1558 1559 1561 1562 1562
1540 1539 1537 1537 1537 1537 1536 1536 1535 1535 1534 1534 1533 1533 1533 1533 1534 1534 1535 1536 1537 1538 1539 1539 1541 1542 1544 1545 1547 1548 1550 1551 1553 1554 1555 1556 1558 1559 1560 1561 1562 1563 1564
1542 1541 1540 1539 1539 1539 1539 1538 1538 1538 1537 1537 1536 1536 1536 1536 1537 1538 1538 1539 1540 1541 1541 1542 1544 1545 1546 1548 1549 1551 1552 1553 1555 1556 1558 1560 1560 1561 1562 1563 1564 1565 1566
1544 1544 1542 1541 1541 1541 1541 1541 1541 1540 1540 1540 1539 1539 1539 1540 1540 1540 1541 1542 1542 1544 1545 1546 1547 1548 1549 1550 1551 1553 1554 1556 1557 1558 1561 1562 1562 1562 1563 1564 1565 1566 1567
1545 1545 1543 1543 1543 1543 1543 1543 1543 1543 1543 1543 1543 1543 1543 1543 1543 1544 1544 1545 1546 1547 1548 1548 1550 1551 1552 1553 1554 1555 1556 1557 1559 1561 1563 1563 1564 1564 1565 1566 1567 1568 1569
1547 1547 1545 1545 1545 1545 1545 1545 1545 1545 1545 1545 1545 1545 1546 1546 1546 1547 1547 1548 1549 1550 1550 1551 1552 1553 1554 1555 1556 1557 1558 1559 1561 1563 1564 1565 1565 1565 1566 1567 1568 1569 1570
1549 1549 1548 1546 1547 1547 1547 1547 1547 1547 1547 1548 1548 1548 1548 1549 1549 1549 1550 1550 1551 1552 1553 1554 1554 1555 1556 1557 1558 1559 1560 1561 1564 1565 1565 1566 1566 1567 1568 1569 1570 1571 1571
1550 1550 1549 1548 1548 1549 1549 1549 1549 1549 1550 1550 1550 1550 1551 1551 1552 1552 1552 1553 1554 1554 1555 1556 1557 1558 1558 1559 1560 1561 1562 1563 1565 1566 1566 1567 1567 1568 1569 1570 1571 1572 1572
1551 1551 1552 1552 1550 1550 1551 1551 1551 1551 1551 1552 1552 1553 1553 1553 1554 1554 1555 1555 1556 1557 1557 1558 1559 1560 1560 1561 1562 1563 1563 1564 1567 1567 1568 1568 1568 1569 1570 1571 1572 1573 1573
1552 1553 1553 1554 1554 1554 1553 1553 1553 1553 1553 1554 1554 1555 1555 1556 1556 1556 1557 1557 1558 1559 1559 1560 1561 1561 1562 1563 1563 1564 1565 1566 1569 1569 1569 1569 1569 1570 1571 1572 1573 1574 1574
1553 1554 1554 1555 1555 1556 1556 1555 1555 1555 1555 1556 1556 1556 1557 1559 1559 1559 1559 1559 1560 1560 1561 1562 1562 1563 1564 1564 1565 1565 1566 1569 1570 1570 1570 1569 1570 1571 1571 1572 1573 1574 1575
1554 1555 1555 1556 1556 1556 1557 1557 1557 1558 1557 1558 1558 1559 1559 1559 1560 1561 1560 1561 1561 1562 1563 1563 1564 1564 1566 1567 1567 1567 1569 1570 1570 1571 1570 1570 1570 1571 1572 1573 1574 1575 1576
1555 1556 1556 1556 1556 1557 1558 1558 1559 1559 1558 1559 1559 1560 1560 1561 1562 1562 1563 1563 1563 1564 1565 1565 1566 1567 1568 1568 1568 1569 1569 1570 1571 1571 1570 1570 1571 1571 1572 1573 1574 1575 1576
1556 1557 1557 1557 1557 1557 1558 1559 1559 1560 1560 1560 1560 1561 1561 1562 1562 1563 1564 1565 1565 1565 1566 1567 1567 1568 1568 1568 1568 1569 1570 1571 1571 1571 1570 1570 1571 1572 1572 1573 1574 1575 1575
1556 1557 1557 1557 1557 1557 1557 1559 1559 1560 1560 1560 1560 1561 1561 1562 1563 1564 1564 1564 1565 1566 1566 1566 1567 1567 1568 1568 1569 1570 1570 1570 1571 1571 1570 1570 1570 1571 1572 1573 1573 1574 1575
1557 1557 1557 1557 1557 1557 1557 1558 1559 1559 1559 1560 1561 1561 1561 1562 1563 1563 1564 1564 1565 1566 1567 1567 1567 1567 1568 1569 1569 1569 1570 1570 1570 1570 1571 1570 1570 1571 1571 1572 1573 1573 1574
1557 1557 1557 1557 1557 1557 1558 1558 1559 1559 1559 1560 1560 1560 1561 1562 1562 1563 1564 1564 1565 1565 1566 1566 1567 1567 1568 1568 1568 1569 1569 1569 1569 1569 1570 1570 1570 1570 1570 1571 1571 1572 1573
1556 1556 1556 1557 1557 1557 1557 1557 1559 1559 1559 1559 1560 1560 1560 1561 1561 1562 1563 1563 1564 1564 1565 1565 1566 1567 1567 1568 1568 1568 1568 1568 1568 1569 1569 1569 1570 1570 1570 1570 1570 1570 1571
1555 1556 1556 1556 1557 1557 1557 1557 1558 1558 1558 1559 1559 1559 1559 1560 1560 1561 1562 1562 1563 1564 1564 1565 1565 1566 1566 1566 1567 1567 1567 1567 1567 1568 1568 1569 1569 1568 1569 1568 1568 1568 1569
1555 1555 1555 1556 1556 1556 1557 1556 1557 1557 1558 1558 1558 1558 1559 1559 1559 1560 1561 1561 1562 1563 1563 1563 1563 1564 1564 1565 1566 1566 1566 1566 1566 1567 1567 1567 1567 1567 1567 1567 1566 1567 1567
1554 1554 1555 1555 1555 1555 1556 1556 1557 1557 1558 1558 1558 1558 1558 1558 1558 1559 1560 1560 1560 1561 1561 1562 1562 1563 1563 1564 1564 1564 1565 1565 1565 1565 1565 1566 1566 1566 1566 1565 1565 1565 1565
1553 1553 1554 1554 1555 1555 1555 1555 1556 1556 1557 1557 1557 1557 1557 1557 1558 1558 1558 1559 1559 1560 1560 1560 1561 1562 1562 1563 1563 1563 1563 1564 1563 1563 1563 1564 1564 1564 1564 1563 1563 1563 1563
1551 1552 1553 1553 1554 1554 1554 1555 1556 1555 1556 1557 1557 1556 1556 1557 1557 1556 1557 1557 1558 1558 1559 1559 1559 1560 1561 1561 1561 1562 1562 1561 1562 1562 1561 1562 1562 1562 1562 1562 1561 1561 1561
1550 1551 1551 1552 1552 1553 1553 1554 1555 1555 1556 1556 1556 1556 1556 1555 1555 1555 1556 1556 1556 1557 1557 1558 1558 1558 1559 1559 1560 1559 1560 1560 1560 1560 1561 1560 1560 1560 1560 1560 1560 1559 1559
1549 1550 1550 1551 1552 1552 1553 1553 1554 1555 1555 1556 1555 1555 1554 1555 1554 1554 1555 1555 1555 1555 1556 1556 1556 1556 1557 1557 1558 1558 1558 1557 1558 1558 1559 1559 1559 1559 1558 1558 1558 1558 1558
1548 1549 1550 1550 1551 1551 1552 1553 1553 1554 1554 1554 1554 1554 1554 1554 1554 1553 1553 1553 1553 1554 1554 1554 1554 1554 1554 1554 1555 1555 1555 1555 1555 1556 1556 1556 1557 1557 1557 1556 1556 1556 1556